カタログに戻る

STARLINK-35479

運用中通信VLEO
NORAD 66326·PAYLOAD·🇺🇸 United States

打ち上げ Nov 6, 2025 から Cape Canaveral Space Force Station

Loading…

次のパス (今後24時間)

TLE

最新Source: CelesTrak SupGP

元期: Sep 14, 2026, 23:17 UTC

1 66326C 25253H   26257.97062500  .00003404  00000+0  12325-3 0  2574
2 66326  43.0005 223.6033 0001415 259.6988  37.8347 15.27590699    10

AllMySatでSTARLINK-35479をリアルタイム追跡

Download on the App Store